KLM565 LFKB-LOWW

Flight info

Callsign KLM565
Flight time 1h 23m
Altitude 33000
Route MOULE L146 ELB DCT OMAKU DCT SUKOM DCT ROVIG DCT CHI DCT ROSKA DCT BARPI DCT LAPNA LAPNA2W
Aircraft B738/M-SDE2E3FGHIRWXY/LB1

Departure

Time 2026-05-04 19:47
Airport Bastia-Poretta International airport (LFKB)

Arrival

Time 2026-05-04 21:10
Airport Vienna International Airport (LOWW)
Time Latitude Longitude Altitude Speed Heading
2026-05-04 19:24 42.54780 9.48196 34 ft 0 kts 283°
2026-05-04 19:41 42.54778 9.48208 34 ft 5 kts 283°
2026-05-04 19:42 42.54768 9.48248 34 ft 5 kts 301°
2026-05-04 19:42 42.54751 9.48275 34 ft 1 kts 331°
2026-05-04 19:42 42.54744 9.48280 34 ft 0 kts 342°
2026-05-04 19:42 42.54749 9.48279 34 ft 3 kts 348°
2026-05-04 19:43 42.54799 9.48278 34 ft 12 kts 352°
2026-05-04 19:43 42.54901 9.48247 34 ft 16 kts 343°
2026-05-04 19:43 42.54997 9.48228 34 ft 11 kts 345°
2026-05-04 19:43 42.55074 9.48197 34 ft 13 kts 342°
2026-05-04 19:44 42.55182 9.48150 34 ft 20 kts 343°
2026-05-04 19:44 42.55314 9.48095 34 ft 18 kts 343°
2026-05-04 19:44 42.55436 9.48045 34 ft 21 kts 343°
2026-05-04 19:44 42.55588 9.47980 34 ft 23 kts 342°
2026-05-04 19:45 42.55724 9.47923 34 ft 18 kts 343°
2026-05-04 19:45 42.55837 9.47877 34 ft 19 kts 343°
2026-05-04 19:45 42.55944 9.47935 34 ft 16 kts 69°
2026-05-04 19:45 42.55961 9.48058 34 ft 10 kts 113°
2026-05-04 19:46 42.55935 9.48091 34 ft 0 kts 160°
2026-05-04 19:46 42.55935 9.48092 34 ft 0 kts 160°
2026-05-04 19:46 42.55856 9.48128 34 ft 43 kts 163°
2026-05-04 19:46 42.55293 9.48364 34 ft 124 kts 163°
2026-05-04 19:47 42.54303 9.48782 396 ft 163 kts 161°
2026-05-04 19:47 42.53252 9.49463 1252 ft 175 kts 135°
2026-05-04 19:47 42.52790 9.50985 2058 ft 191 kts 98°
2026-05-04 19:47 42.53128 9.52897 2472 ft 225 kts 65°
2026-05-04 19:48 42.54149 9.54644 2857 ft 255 kts 48°
2026-05-04 19:48 42.55416 9.56457 3662 ft 265 kts 49°
2026-05-04 19:48 42.56685 9.58295 4667 ft 271 kts 49°
2026-05-04 19:48 42.57799 9.60332 5571 ft 275 kts 61°
2026-05-04 19:49 42.58634 9.62722 6492 ft 280 kts 70°
2026-05-04 19:49 42.59303 9.65214 7415 ft 285 kts 73°
2026-05-04 19:49 42.59972 9.67754 8324 ft 290 kts 71°
2026-05-04 19:49 42.60702 9.70328 9198 ft 296 kts 70°
2026-05-04 19:50 42.61488 9.72958 10083 ft 301 kts 69°
2026-05-04 19:50 42.62215 9.75623 10884 ft 308 kts 74°
2026-05-04 19:50 42.62774 9.78577 11342 ft 328 kts 78°
2026-05-04 19:50 42.63268 9.81657 11655 ft 351 kts 78°
2026-05-04 19:51 42.63811 9.84946 12172 ft 365 kts 78°
2026-05-04 19:51 42.64385 9.88351 12916 ft 371 kts 78°
2026-05-04 19:51 42.64976 9.91792 13654 ft 377 kts 78°
2026-05-04 19:51 42.65574 9.95281 14393 ft 383 kts 77°
2026-05-04 19:52 42.66200 9.98865 15146 ft 388 kts 77°
2026-05-04 19:52 42.66827 10.02440 15872 ft 393 kts 77°
2026-05-04 19:52 42.67453 10.06057 16586 ft 397 kts 77°
2026-05-04 19:52 42.68083 10.09734 17259 ft 402 kts 77°
2026-05-04 19:53 42.68713 10.13444 17950 ft 406 kts 78°
2026-05-04 19:53 42.69349 10.17209 18585 ft 411 kts 78°
2026-05-04 19:53 42.69991 10.21023 19227 ft 415 kts 78°
2026-05-04 19:53 42.70631 10.24841 19927 ft 417 kts 78°
2026-05-04 19:54 42.71286 10.28749 20579 ft 420 kts 78°
2026-05-04 19:54 42.71939 10.32623 21165 ft 425 kts 77°
2026-05-04 19:54 42.73041 10.36362 21766 ft 428 kts 60°
2026-05-04 19:54 42.74853 10.39552 22316 ft 431 kts 44°
2026-05-04 19:55 42.77223 10.42054 22893 ft 432 kts 31°
2026-05-04 19:55 42.79817 10.44100 23421 ft 434 kts 27°
2026-05-04 19:55 42.82531 10.46040 23971 ft 437 kts 25°
2026-05-04 19:55 42.85257 10.47909 24458 ft 440 kts 25°
2026-05-04 19:56 42.87992 10.49784 24889 ft 445 kts 25°
2026-05-04 19:56 42.90776 10.51696 25355 ft 448 kts 25°
2026-05-04 19:56 42.93553 10.53605 25775 ft 452 kts 24°
2026-05-04 19:56 42.96386 10.55554 26202 ft 456 kts 24°
2026-05-04 19:57 42.99217 10.57505 26622 ft 459 kts 24°
2026-05-04 19:57 43.02072 10.59475 27057 ft 461 kts 23°
2026-05-04 19:57 43.04942 10.61450 27422 ft 465 kts 23°
2026-05-04 19:57 43.07870 10.63455 27778 ft 469 kts 23°
2026-05-04 19:58 43.10737 10.65424 28327 ft 467 kts 23°
2026-05-04 19:58 43.13672 10.67445 28683 ft 469 kts 23°
2026-05-04 19:58 43.16588 10.69457 29069 ft 471 kts 22°
2026-05-04 19:58 43.19492 10.71464 29538 ft 470 kts 22°
2026-05-04 19:59 43.22412 10.73485 30073 ft 468 kts 22°
2026-05-04 19:59 43.25277 10.75471 30693 ft 461 kts 22°
2026-05-04 19:59 43.28169 10.77478 31174 ft 462 kts 22°
2026-05-04 20:00 43.33997 10.81531 31487 ft 474 kts 22°
2026-05-04 20:00 43.36897 10.83551 32004 ft 471 kts 22°
2026-05-04 20:00 43.39847 10.85609 32512 ft 468 kts 22°
2026-05-04 20:00 43.42735 10.87625 32951 ft 467 kts 22°
2026-05-04 20:01 43.45641 10.89657 33093 ft 470 kts 22°
2026-05-04 20:01 43.51470 10.93738 33106 ft 470 kts 22°
2026-05-04 20:02 43.57251 10.97795 33105 ft 465 kts 22°
2026-05-04 20:02 43.62722 11.01642 33093 ft 466 kts 22°
2026-05-04 20:03 43.68500 11.05714 33097 ft 465 kts 22°
2026-05-04 20:03 43.74230 11.09761 33104 ft 464 kts 22°
2026-05-04 20:04 43.75290 11.10511 33104 ft 464 kts 22°
2026-05-04 20:05 43.81074 11.14607 33093 ft 465 kts 23°
2026-05-04 20:06 43.86821 11.18679 33084 ft 464 kts 22°
2026-05-04 20:06 43.92564 11.22747 33081 ft 465 kts 23°
2026-05-04 20:07 43.98313 11.26847 33065 ft 466 kts 23°
2026-05-04 20:07 44.04084 11.30978 33064 ft 466 kts 23°
2026-05-04 20:08 44.09833 11.35102 33075 ft 466 kts 23°
2026-05-04 20:08 44.10712 11.35734 33076 ft 466 kts 23°
2026-05-04 20:09 44.11793 11.36509 33077 ft 466 kts 23°
2026-05-04 20:10 44.17598 11.40689 33069 ft 469 kts 21°
2026-05-04 20:10 44.23417 11.44697 33056 ft 465 kts 22°
2026-05-04 20:11 44.29164 11.48667 33058 ft 461 kts 22°
2026-05-04 20:11 44.34867 11.52631 33061 ft 459 kts 22°
2026-05-04 20:12 44.40615 11.56656 33062 ft 459 kts 23°
2026-05-04 20:12 44.46305 11.60658 33062 ft 458 kts 23°
2026-05-04 20:13 44.52002 11.64671 33056 ft 461 kts 23°
2026-05-04 20:13 44.57749 11.68622 33053 ft 459 kts 21°
2026-05-04 20:14 44.63591 11.72138 33047 ft 458 kts 20°
2026-05-04 20:14 44.69440 11.75655 33044 ft 458 kts 20°
2026-05-04 20:15 44.75320 11.79250 33043 ft 458 kts 21°
2026-05-04 20:15 44.81142 11.82835 33041 ft 458 kts 21°
2026-05-04 20:16 44.86967 11.86435 33050 ft 459 kts 21°
2026-05-04 20:16 44.89793 11.88568 33047 ft 463 kts 32°
2026-05-04 20:16 44.92255 11.91480 33052 ft 466 kts 44°
2026-05-04 20:17 44.96008 11.98953 33047 ft 468 kts 59°
2026-05-04 20:17 44.99104 12.07045 33037 ft 469 kts 60°
2026-05-04 20:18 45.02161 12.15112 33068 ft 464 kts 62°
2026-05-04 20:18 45.05228 12.23177 33075 ft 465 kts 61°
2026-05-04 20:19 45.08360 12.31257 33068 ft 464 kts 59°
2026-05-04 20:19 45.11673 12.39059 33067 ft 463 kts 59°
2026-05-04 20:20 45.14954 12.46825 33061 ft 464 kts 59°
2026-05-04 20:20 45.18277 12.54626 33058 ft 464 kts 59°
2026-05-04 20:21 45.21563 12.62465 33055 ft 463 kts 59°
2026-05-04 20:21 45.26459 12.74253 33053 ft 463 kts 59°
2026-05-04 20:22 45.29191 12.80855 33053 ft 465 kts 59°
2026-05-04 20:22 45.32476 12.88783 33053 ft 466 kts 59°
2026-05-04 20:23 45.35787 12.96772 33054 ft 473 kts 58°
2026-05-04 20:23 45.39130 13.04869 33058 ft 471 kts 59°
2026-05-04 20:24 45.42383 13.12765 33068 ft 461 kts 58°
2026-05-04 20:24 45.45671 13.20630 33069 ft 464 kts 59°
2026-05-04 20:25 45.48926 13.28536 33072 ft 463 kts 59°
2026-05-04 20:25 45.52013 13.36095 33075 ft 463 kts 59°
2026-05-04 20:26 45.55263 13.44085 33070 ft 463 kts 59°
2026-05-04 20:26 45.58497 13.52031 33065 ft 464 kts 59°
2026-05-04 20:27 45.62072 13.59684 33063 ft 464 kts 54°
2026-05-04 20:27 45.65786 13.67143 33036 ft 460 kts 53°
2026-05-04 20:28 45.69466 13.74621 33023 ft 460 kts 53°
2026-05-04 20:28 45.73131 13.82129 33036 ft 464 kts 54°
2026-05-04 20:29 45.76835 13.89760 33031 ft 462 kts 54°
2026-05-04 20:29 45.80537 13.97345 33031 ft 462 kts 54°
2026-05-04 20:30 45.84248 14.04952 33035 ft 463 kts 54°
2026-05-04 20:30 45.87925 14.12539 33041 ft 463 kts 54°
2026-05-04 20:31 45.91393 14.19729 33052 ft 463 kts 54°
2026-05-04 20:31 45.95102 14.27446 33062 ft 463 kts 54°
2026-05-04 20:32 45.98799 14.35164 33069 ft 463 kts 54°
2026-05-04 20:32 46.02483 14.42880 33073 ft 463 kts 54°
2026-05-04 20:33 46.05924 14.50105 33077 ft 464 kts 54°
2026-05-04 20:33 46.09596 14.57838 33079 ft 465 kts 54°
2026-05-04 20:34 46.13241 14.65535 33079 ft 464 kts 54°
2026-05-04 20:34 46.16909 14.73302 33077 ft 465 kts 55°
2026-05-04 20:35 46.20552 14.81040 33075 ft 464 kts 55°
2026-05-04 20:35 46.24202 14.88812 33073 ft 465 kts 55°
2026-05-04 20:36 46.27821 14.96539 33068 ft 464 kts 55°
2026-05-04 20:36 46.31481 15.04378 33068 ft 463 kts 54°
2026-05-04 20:37 46.35097 15.12143 33052 ft 457 kts 54°
2026-05-04 20:37 46.38655 15.19735 33042 ft 456 kts 54°
2026-05-04 20:38 46.42205 15.27394 33030 ft 454 kts 54°
2026-05-04 20:38 46.45145 15.33777 33017 ft 451 kts 54°
2026-05-04 20:39 46.46896 15.37588 32897 ft 449 kts 54°
2026-05-04 20:39 46.48650 15.41412 32394 ft 443 kts 54°
2026-05-04 20:39 46.50379 15.45183 31869 ft 440 kts 54°
2026-05-04 20:39 46.52235 15.48711 31361 ft 434 kts 45°
2026-05-04 20:40 46.54505 15.51618 30887 ft 427 kts 34°
2026-05-04 20:40 46.57027 15.53820 30365 ft 422 kts 25°
2026-05-04 20:40 46.59698 15.55682 29867 ft 419 kts 22°
2026-05-04 20:40 46.62395 15.57386 29386 ft 416 kts 21°
2026-05-04 20:41 46.65112 15.59060 28906 ft 413 kts 21°
2026-05-04 20:41 46.67778 15.60702 28436 ft 410 kts 21°
2026-05-04 20:41 46.70423 15.62330 27970 ft 407 kts 21°
2026-05-04 20:41 46.73024 15.63932 27512 ft 404 kts 21°
2026-05-04 20:42 46.75634 15.65539 27051 ft 401 kts 21°
2026-05-04 20:42 46.78224 15.67137 26592 ft 398 kts 21°
2026-05-04 20:42 46.80794 15.68722 26135 ft 396 kts 21°
2026-05-04 20:42 46.83356 15.70304 25679 ft 393 kts 21°
2026-05-04 20:43 46.85949 15.71900 25217 ft 391 kts 21°
2026-05-04 20:43 46.88395 15.73398 24780 ft 388 kts 21°
2026-05-04 20:43 46.90873 15.74921 24336 ft 386 kts 21°
2026-05-04 20:43 46.93369 15.76457 23887 ft 383 kts 21°
2026-05-04 20:44 46.95819 15.77969 23445 ft 381 kts 21°
2026-05-04 20:44 46.98282 15.79491 22998 ft 379 kts 21°
2026-05-04 20:44 47.00734 15.81009 22552 ft 377 kts 21°
2026-05-04 20:44 47.03162 15.82514 22109 ft 375 kts 21°
2026-05-04 20:45 47.05558 15.84001 21672 ft 373 kts 21°
2026-05-04 20:45 47.07980 15.85500 21230 ft 371 kts 21°
2026-05-04 20:45 47.10379 15.86981 20792 ft 369 kts 21°
2026-05-04 20:45 47.12711 15.88429 20370 ft 368 kts 21°
2026-05-04 20:46 47.15086 15.89907 19940 ft 366 kts 22°
2026-05-04 20:46 47.17427 15.91368 19516 ft 364 kts 22°
2026-05-04 20:46 47.18985 15.92343 19235 ft 363 kts 22°
2026-05-04 20:46 47.21334 15.93814 18811 ft 361 kts 22°
2026-05-04 20:47 47.23638 15.95258 18396 ft 360 kts 22°
2026-05-04 20:47 47.25936 15.96701 17983 ft 359 kts 22°
2026-05-04 20:47 47.28241 15.98149 17569 ft 357 kts 22°
2026-05-04 20:47 47.30528 15.99588 17160 ft 356 kts 22°
2026-05-04 20:48 47.32823 16.01032 16753 ft 354 kts 22°
2026-05-04 20:48 47.35099 16.02464 16349 ft 353 kts 22°
2026-05-04 20:48 47.37381 16.03887 15988 ft 352 kts 21°
2026-05-04 20:48 47.39704 16.05147 15722 ft 353 kts 18°
2026-05-04 20:49 47.42042 16.06288 15462 ft 355 kts 17°
2026-05-04 20:49 47.44417 16.07422 15204 ft 358 kts 17°
2026-05-04 20:49 47.46793 16.08562 14945 ft 357 kts 16°
2026-05-04 20:49 47.49121 16.09686 14697 ft 352 kts 16°
2026-05-04 20:50 47.51449 16.10822 14445 ft 351 kts 16°
2026-05-04 20:50 47.53764 16.11959 14191 ft 351 kts 16°
2026-05-04 20:50 47.56104 16.13116 13935 ft 351 kts 16°
2026-05-04 20:50 47.58422 16.14266 13681 ft 350 kts 16°
2026-05-04 20:51 47.60753 16.15427 13423 ft 349 kts 16°
2026-05-04 20:51 47.63041 16.16569 13170 ft 348 kts 17°
2026-05-04 20:51 47.65325 16.17711 12920 ft 347 kts 17°
2026-05-04 20:51 47.67640 16.18871 12615 ft 347 kts 17°
2026-05-04 20:52 47.69921 16.20014 12332 ft 346 kts 18°
2026-05-04 20:52 47.71214 16.20663 12183 ft 345 kts 18°
2026-05-04 20:52 47.73484 16.21801 11924 ft 344 kts 18°
2026-05-04 20:52 47.75775 16.22951 11667 ft 343 kts 18°
2026-05-04 20:53 47.78036 16.24015 11415 ft 340 kts 15°
2026-05-04 20:53 47.79560 16.24635 11248 ft 336 kts 14°
2026-05-04 20:53 47.82533 16.25768 10924 ft 329 kts 14°
2026-05-04 20:53 47.84730 16.26603 10687 ft 324 kts 14°
2026-05-04 20:54 47.85965 16.27075 10553 ft 321 kts 14°
2026-05-04 20:54 47.88103 16.27896 10321 ft 316 kts 14°
2026-05-04 20:54 47.90234 16.28718 10089 ft 312 kts 14°
2026-05-04 20:54 47.92342 16.29535 9869 ft 308 kts 14°
2026-05-04 20:55 47.94376 16.30325 9674 ft 303 kts 14°
2026-05-04 20:55 47.96433 16.31127 9463 ft 299 kts 14°
2026-05-04 20:55 47.98467 16.31921 9247 ft 296 kts 14°
2026-05-04 20:55 48.00433 16.32690 9028 ft 295 kts 14°
2026-05-04 20:56 48.02416 16.33467 8806 ft 294 kts 14°
2026-05-04 20:56 48.04414 16.34250 8584 ft 293 kts 14°
2026-05-04 20:56 48.06414 16.35028 8365 ft 293 kts 14°
2026-05-04 20:56 48.08430 16.35809 8144 ft 293 kts 14°
2026-05-04 20:57 48.10382 16.36569 7930 ft 293 kts 14°
2026-05-04 20:57 48.12358 16.37341 7713 ft 293 kts 14°
2026-05-04 20:57 48.14350 16.38123 7494 ft 292 kts 14°
2026-05-04 20:57 48.16300 16.38890 7279 ft 291 kts 14°
2026-05-04 20:58 48.18275 16.39446 7069 ft 288 kts
2026-05-04 20:58 48.20253 16.39596 6961 ft 279 kts
2026-05-04 20:58 48.22166 16.39652 6893 ft 269 kts 359°
2026-05-04 20:58 48.24025 16.39604 6749 ft 262 kts 357°
2026-05-04 20:59 48.25845 16.39538 6484 ft 262 kts 357°
2026-05-04 20:59 48.27683 16.39480 6151 ft 264 kts 357°
2026-05-04 20:59 48.29532 16.39420 5871 ft 260 kts 357°
2026-05-04 20:59 48.31323 16.39266 5643 ft 257 kts 353°
2026-05-04 21:00 48.33119 16.39030 5398 ft 255 kts 353°
2026-05-04 21:00 48.34857 16.38797 5282 ft 247 kts 353°
2026-05-04 21:00 48.36530 16.38549 5208 ft 237 kts 353°
2026-05-04 21:00 48.38132 16.38312 5129 ft 227 kts 353°
2026-05-04 21:01 48.39683 16.38082 5071 ft 214 kts 353°
2026-05-04 21:01 48.41112 16.38069 4958 ft 207 kts 16°
2026-05-04 21:01 48.42202 16.39288 4949 ft 189 kts 65°
2026-05-04 21:01 48.42460 16.41090 4996 ft 175 kts 99°
2026-05-04 21:02 48.42091 16.42782 4983 ft 166 kts 135°
2026-05-04 21:02 48.41209 16.43840 5052 ft 162 kts 153°
2026-05-04 21:02 48.40224 16.44648 5050 ft 161 kts 159°
2026-05-04 21:02 48.39201 16.45329 5035 ft 160 kts 162°
2026-05-04 21:03 48.38177 16.45934 5023 ft 158 kts 163°
2026-05-04 21:03 48.37148 16.46524 5016 ft 159 kts 162°
2026-05-04 21:03 48.36127 16.47150 5013 ft 159 kts 163°
2026-05-04 21:03 48.35095 16.47742 5012 ft 158 kts 164°
2026-05-04 21:04 48.34047 16.48286 4996 ft 158 kts 166°
2026-05-04 21:04 48.33004 16.48788 4838 ft 161 kts 167°
2026-05-04 21:04 48.31939 16.49277 4616 ft 155 kts 168°
2026-05-04 21:04 48.30935 16.49725 4420 ft 147 kts 168°
2026-05-04 21:05 48.29968 16.50149 4222 ft 143 kts 168°
2026-05-04 21:05 48.29023 16.50559 4030 ft 140 kts 168°
2026-05-04 21:05 48.28102 16.50955 3848 ft 138 kts 168°
2026-05-04 21:05 48.27182 16.51350 3668 ft 137 kts 168°
2026-05-04 21:06 48.26265 16.51742 3486 ft 137 kts 167°
2026-05-04 21:06 48.25354 16.52131 3304 ft 135 kts 167°
2026-05-04 21:06 48.24469 16.52509 3149 ft 129 kts 167°
2026-05-04 21:06 48.23617 16.52872 2959 ft 126 kts 167°
2026-05-04 21:07 48.22790 16.53224 2791 ft 123 kts 166°
2026-05-04 21:07 48.21952 16.53581 2628 ft 124 kts 166°
2026-05-04 21:07 48.21122 16.53935 2464 ft 125 kts 165°
2026-05-04 21:07 48.20299 16.54285 2299 ft 124 kts 165°
2026-05-04 21:08 48.19444 16.54648 2123 ft 130 kts 164°
2026-05-04 21:08 48.18539 16.55033 1956 ft 139 kts 163°
2026-05-04 21:08 48.17596 16.55434 1770 ft 141 kts 163°
2026-05-04 21:08 48.16652 16.55835 1579 ft 141 kts 163°
2026-05-04 21:09 48.15711 16.56235 1390 ft 141 kts 163°
2026-05-04 21:09 48.14775 16.56632 1203 ft 140 kts 163°
2026-05-04 21:09 48.13839 16.57029 1017 ft 140 kts 163°
2026-05-04 21:09 48.12900 16.57426 807 ft 141 kts 163°
2026-05-04 21:10 48.11965 16.57820 654 ft 137 kts 163°
2026-05-04 21:10 48.11089 16.58185 608 ft 113 kts 163°
2026-05-04 21:10 48.10536 16.58425 608 ft 45 kts 163°
2026-05-04 21:10 48.10294 16.58459 608 ft 20 kts 192°
2026-05-04 21:11 48.10178 16.58419 608 ft 15 kts 193°
2026-05-04 21:11 48.10109 16.58333 608 ft 13 kts 261°
2026-05-04 21:11 48.10168 16.58299 608 ft 11 kts 359°
2026-05-04 21:11 48.10260 16.58267 608 ft 18 kts 344°
2026-05-04 21:12 48.10403 16.58207 608 ft 25 kts 344°
2026-05-04 21:12 48.10570 16.58136 608 ft 23 kts 343°
2026-05-04 21:12 48.10707 16.58078 608 ft 18 kts 344°
2026-05-04 21:12 48.10838 16.58022 608 ft 23 kts 344°
2026-05-04 21:13 48.11008 16.57952 608 ft 26 kts 345°
2026-05-04 21:13 48.11125 16.57808 608 ft 20 kts 296°
2026-05-04 21:13 48.11189 16.57616 608 ft 22 kts 296°
2026-05-04 21:13 48.11263 16.57389 608 ft 27 kts 295°
2026-05-04 21:14 48.11344 16.57138 608 ft 25 kts 296°
2026-05-04 21:14 48.11411 16.56934 608 ft 19 kts 296°
2026-05-04 21:14 48.11496 16.56903 608 ft 12 kts 22°
2026-05-04 21:14 48.11574 16.56915 608 ft 14 kts 308°
2026-05-04 21:15 48.11628 16.56826 608 ft 9 kts 19°
2026-05-04 21:15 48.11685 16.56864 608 ft 8 kts 25°
2026-05-04 21:15 48.11693 16.56871 608 ft 0 kts 26°